Avalon Airport, Australia

8:18 PM AEDT on February 21, 2017 (GMT +1100)
Avalon

Weather History for YMAV - September, 2013

Change the Weather History Date:

Friday, September 20, 2013

  Actual Average Record
Temperature  
Mean Temperature 52 °F -  
Max Temperature 62 °F - - ()
Min Temperature 42 °F - - ()
Degree Days  
Heating Degree Days 13    
Growing Degree Days 2 (Base 50)    
Moisture  
Dew Point 46 °F    
Average Humidity 75    
Maximum Humidity 93    
Minimum Humidity 55    
Precipitation  
Precipitation 0.02 in - - ()
Sea Level Pressure  
Sea Level Pressure 29.78 in    
Wind  
Wind Speed 14 mph ()    
Max Wind Speed 24 mph    
Max Gust Speed 33 mph    
Visibility 6.2 miles    
Events Rain    
T = Trace of Precipitation, MM = Missing Value Source: Averaged Metar Reports

Daily Weather History Graph

Daily Weather History Graph

Search for Another Location

Airport or City:

Trip Planner

Search our weather history database for the weather conditions in past years. The results will help you decide how hot, cold, wet, or windy it might be!

Date:

Astronomy

Sep. 20, 2013 Rise Set
Actual Time 6:15 AM AEST 6:16 PM AEST
Civil Twilight 5:48 AM AEST 6:43 PM AEST
Nautical Twilight 5:18 AM AEST 7:13 PM AEST
Astronomical Twilight 4:47 AM AEST 7:44 PM AEST
Moon 7:12 PM AEST (9/20) 6:16 AM AEST (9/20)
Length of Visible Light 12h 54m
Length of Day
12h 01m
Full, 100% of the Moon is Illuminated
Sep 20
Full
Sep 27
Last Quarter
Oct 5
New
Oct 12
First Quarter
Oct 19
Full

Hourly Weather History & Observations

Time (AEST) Temp. Windchill Dew Point Humidity Pressure Visibility Wind Dir Wind Speed Gust Speed Precip Events Conditions
12:00 AM 51 °F - 45 °F 74% 29.65 in - North 8.1 mph - -   Overcast
12:00 AM 51.8 °F - 44.6 °F 76% 29.65 in 6.2 mi North 8.1 mph - N/A   Overcast
12:30 AM 55.4 °F - 46.4 °F 72% 29.65 in 6.2 mi NNW 15.0 mph - N/A   Overcast
1:00 AM 51.8 °F - 44.6 °F 76% 29.65 in 6.2 mi West 9.2 mph - N/A Rain Light Rain Showers
1:30 AM 51.8 °F - 46.4 °F 82% 29.65 in 6.2 mi WNW 11.5 mph - N/A Rain Light Rain Showers
2:00 AM 51.8 °F - 44.6 °F 76% 29.65 in 6.2 mi NW 15.0 mph - N/A   Overcast
2:30 AM 51.8 °F - 44.6 °F 76% 29.62 in 6.2 mi NW 13.8 mph - N/A   Overcast
3:00 AM 51 °F - 44 °F 68% 29.64 in - NW 13.8 mph - -   Overcast
3:00 AM 51.8 °F - 44.6 °F 76% 29.62 in 6.2 mi NW 13.8 mph - N/A   Overcast
3:30 AM 51.8 °F - 42.8 °F 71% 29.62 in 6.2 mi NW 15.0 mph - N/A   Overcast
4:00 AM 50.0 °F - 42.8 °F 76% 29.62 in 6.2 mi WNW 13.8 mph - N/A   Mostly Cloudy
4:30 AM 48.2 °F - 42.8 °F 82% 29.65 in 6.2 mi WNW 13.8 mph - N/A   Scattered Clouds
5:00 AM 50.0 °F - 42.8 °F 76% 29.65 in 6.2 mi WNW 15.0 mph - N/A   Overcast
5:30 AM 50.0 °F - 42.8 °F 76% 29.65 in 6.2 mi WNW 19.6 mph - N/A   Mostly Cloudy
6:00 AM 50 °F - 43 °F 68% 29.68 in - WNW 15.0 mph - -   Overcast
6:00 AM 50.0 °F - 42.8 °F 76% 29.65 in 6.2 mi WNW 15.0 mph - N/A   Overcast
6:30 AM 50.0 °F - 42.8 °F 76% 29.68 in 6.2 mi WNW 17.3 mph - N/A   Overcast
7:00 AM 50.0 °F - 44.6 °F 82% 29.68 in 6.2 mi West 16.1 mph - N/A   Drizzle
7:30 AM 50.0 °F - 46.4 °F 87% 29.71 in 6.2 mi WNW 19.6 mph - N/A Rain Light Rain Showers
8:00 AM 51.8 °F - 46.4 °F 82% 29.71 in 6.2 mi WNW 19.6 mph - N/A Rain Light Rain Showers
8:30 AM 51.8 °F - 46.4 °F 82% 29.71 in 6.2 mi West 20.7 mph - N/A   Overcast
9:00 AM 54 °F - 47 °F 72% 29.75 in - West 21.9 mph - -   Overcast
9:00 AM 53.6 °F - 48.2 °F 82% 29.74 in 6.2 mi West 21.9 mph - N/A   Overcast
9:30 AM 57.2 °F - 48.2 °F 72% 29.74 in 6.2 mi West 21.9 mph - N/A   Overcast
9:52 AM 55.4 °F - 48.2 °F 77% 29.74 in 6.2 mi West 20.7 mph 32.2 mph N/A   Overcast
10:00 AM 57.2 °F - 50.0 °F 77% 29.74 in 6.2 mi West 20.7 mph - N/A   Overcast
10:23 AM 59.0 °F - 50.0 °F 72% 29.77 in 6.2 mi West 21.9 mph 33.4 mph N/A   Mostly Cloudy
10:30 AM 57.2 °F - 48.2 °F 72% 29.77 in 6.2 mi West 23.0 mph - N/A   Overcast
11:00 AM 57.2 °F - 48.2 °F 72% 29.77 in 6.2 mi West 21.9 mph - N/A Rain Light Rain
11:30 AM 59.0 °F - 48.2 °F 67% 29.77 in 6.2 mi West 19.6 mph - N/A   Mostly Cloudy
12:00 PM 60.8 °F - 50.0 °F 68% 29.77 in 6.2 mi West 18.4 mph - N/A   Mostly Cloudy
12:30 PM 62.6 °F - 46.4 °F 55% 29.77 in 6.2 mi WSW 21.9 mph - N/A   Mostly Cloudy
1:00 PM 62.6 °F - 46.4 °F 55% 29.77 in 6.2 mi WSW 20.7 mph - N/A   Mostly Cloudy
1:30 PM 60.8 °F - 46.4 °F 59% 29.77 in 6.2 mi West 17.3 mph - N/A   Scattered Clouds
2:00 PM 62.6 °F - 50.0 °F 63% 29.80 in 6.2 mi West 20.7 mph - N/A   Scattered Clouds
2:30 PM 62.6 °F - 48.2 °F 59% 29.80 in 6.2 mi West 23.0 mph - N/A   Mostly Cloudy
2:54 PM 62.6 °F - 51.8 °F 68% 29.83 in 6.2 mi West 19.6 mph 31.1 mph N/A   Overcast
3:00 PM 62.6 °F - 50.0 °F 63% 29.83 in 6.2 mi West 21.9 mph - N/A   Mostly Cloudy
3:30 PM 59.0 °F - 51.8 °F 77% 29.83 in 6.2 mi West 17.3 mph - N/A Rain Light Rain
4:00 PM 60.8 °F - 50.0 °F 68% 29.86 in 6.2 mi WSW 19.6 mph - N/A Rain Light Rain Showers
4:30 PM 59.0 °F - 50.0 °F 72% 29.86 in 6.2 mi WSW 20.7 mph - N/A   Overcast
5:00 PM 57.2 °F - 48.2 °F 72% 29.86 in 6.2 mi West 24.2 mph - N/A   Overcast
5:30 PM 57.2 °F - 48.2 °F 72% 29.89 in 6.2 mi WSW 18.4 mph - N/A   Overcast
6:00 PM 56 °F - 49 °F 69% 29.91 in - West 16.1 mph - -   Overcast
6:00 PM 55.4 °F - 48.2 °F 77% 29.89 in 6.2 mi WSW 16.1 mph - N/A   Mostly Cloudy
6:30 PM 55.4 °F - 46.4 °F 72% 29.92 in 6.2 mi West 13.8 mph - N/A   Scattered Clouds
7:00 PM 53.6 °F - 46.4 °F 77% 29.92 in 6.2 mi West 11.5 mph - N/A   Unknown
7:30 PM 50.0 °F - 46.4 °F 87% 29.95 in 6.2 mi West 11.5 mph - N/A   Unknown
8:00 PM 48.2 °F - 42.8 °F 82% 29.95 in 6.2 mi West 8.1 mph - N/A   Unknown
8:30 PM 46.4 °F 42.4 °F 41.0 °F 81% 29.98 in 6.2 mi West 8.1 mph - N/A   Unknown
9:00 PM 47 °F - 42 °F 78% 29.98 in - WNW 5.8 mph - -  
9:00 PM 46.4 °F 43.5 °F 42.8 °F 87% 29.98 in 6.2 mi WNW 5.8 mph - N/A   Unknown
9:30 PM 46.4 °F 42.9 °F 42.8 °F 87% 29.98 in 6.2 mi WNW 6.9 mph - N/A   Unknown
10:00 PM 44.6 °F 40.7 °F 41.0 °F 87% 29.98 in 6.2 mi NW 6.9 mph - N/A   Unknown
10:30 PM 44.6 °F 41.4 °F 41.0 °F 87% 29.98 in 6.2 mi WNW 5.8 mph - N/A   Unknown
11:00 PM 42.8 °F 40.1 °F 39.2 °F 87% 29.98 in 6.2 mi WNW 4.6 mph - N/A   Unknown
11:30 PM 42.8 °F 38.6 °F 41.0 °F 93% 29.98 in 6.2 mi NW 6.9 mph - N/A   Unknown